sat.trackr.live / text

‹ back to catalog

ONEWEB-0595

NORAD 54661 · 2022-166V

PAYLOAD ACTIVE UNKNOWN

§ Identity

Operator
Country
UK
Launch date
2022-12-08
Launch site
AFETR
Launch vehicle
Mass (kg)
RCS (m²)

Purposes: comms

External: N2YO · Heavens-Above · Gunter

§ Orbital elements

Epoch: 2026-09-20T04:17:45.619008Z

Period
108.94 min
Inclination
87.9287°
Eccentricity
0.0001843
Mean motion
13.21826740 rev/d
Perigee alt
1,176.4 km
Apogee alt
1,179.1 km
Semi-major
7,555.9 km
B*
5.6072e-5
RAAN
225.0707°
Arg perigee
78.3251°
Mean anomaly
281.8090°
Rev number
18,408

§ Raw data

ONEWEB-05951 54661U 22166V   26263.17900022  .00000036  00000+0  56072-4 0  99912 54661  87.9287 225.0707 0001843  78.3251 281.8090 13.21826740184083

JSON: /api/v1/satellites/54661 · /tle

For live sub-satellite position, see the globe view (requires WebGL).

§ Visibility from observer

Set your observer location to see the next 7 days of passes ≥ 10°. The values pass through the URL so the page stays shareable.

No JS? Fill the form by hand. The geolocation button needs JavaScript.